Nashville, TN

5:29 PM CDT on July 20, 2019 (GMT -0500)
Nashville International

Weather History for KBNA - May, 2019

Change the Weather History Date:

Wednesday, May 29, 2019

  Actual Average Record
Temperature  
Mean Temperature 84 °F 71 °F  
Max Temperature 93 °F 82 °F 95 °F (1914)
Min Temperature 75 °F 61 °F 42 °F (1984)
Degree Days  
Heating Degree Days 0    
Month to date heating degree days 27  
Since 1 July heating degree days 3220  
Cooling Degree Days 20    
Month to date cooling degree days 252  
Year to date cooling degree days 311  
Growing Degree Days 34 (Base 50)    
Moisture  
Dew Point 61 °F    
Average Humidity 48    
Maximum Humidity 67    
Minimum Humidity 26    
Precipitation  
Precipitation 0.00 in 0.17 in 2.32 in (1924)
Month to date precipitation 1.58 5.17  
Year to date precipitation 29.46 20.97  
Sea Level Pressure  
Sea Level Pressure 29.85 in    
Wind  
Wind Speed 8 mph ()    
Max Wind Speed 17 mph    
Max Gust Speed 33 mph    
Visibility 10.0 miles    
Events      
T = Trace of Precipitation, MM = Missing Value Source: Averaged Metar Reports

Daily Weather History Graph

Daily Weather History Graph

Search for Another Location

Airport or City:

Astronomy

May. 29, 2019 Rise Set
Actual Time 5:32 AM CDT 7:56 PM CDT
Civil Twilight 5:02 AM CDT 8:25 PM CDT
Nautical Twilight 4:26 AM CDT 9:02 PM CDT
Astronomical Twilight 3:46 AM CDT 9:42 PM CDT
Moon 2:59 AM CDT (5/29) 3:14 PM CDT (5/29)
Length of Visible Light 15h 23m
Length of Day
14h 24m
Waning Crescent, 23% of the Moon is Illuminated
May 29
Waning Crescent
Jun 3
New
Jun 10
First Quarter
Jun 17
Full
Jun 25
Last Quarter

Hourly Weather History & Observations

Time (CDT) Temp. Heat Index Dew Point Humidity Pressure Visibility Wind Dir Wind Speed Gust Speed Precip Events Conditions
12:53 AM 79.0 °F - 66.0 °F 64% 29.83 in 10.0 mi SSW 5.8 mph - N/A   Overcast
1:53 AM 79.0 °F - 66.0 °F 64% 29.84 in 10.0 mi SW 4.6 mph - N/A   Overcast
2:53 AM 79.0 °F - 66.0 °F 64% 29.85 in 10.0 mi SSW 10.4 mph - N/A   Overcast
3:53 AM 78.1 °F - 64.9 °F 64% 29.84 in 10.0 mi SSW 9.2 mph - N/A   Overcast
4:53 AM 78.1 °F - 64.9 °F 64% 29.84 in 10.0 mi SW 6.9 mph - N/A   Overcast
5:53 AM 78.1 °F - 64.9 °F 64% 29.85 in 10.0 mi SSW 8.1 mph - N/A   Mostly Cloudy
6:53 AM 78.1 °F - 64.9 °F 64% 29.87 in 10.0 mi SSW 11.5 mph - N/A   Scattered Clouds
7:53 AM 81.0 °F 83.0 °F 66.0 °F 60% 29.88 in 10.0 mi SSW 6.9 mph 16.1 mph N/A   Mostly Cloudy
8:53 AM 82.9 °F 85.4 °F 66.9 °F 58% 29.89 in 10.0 mi WSW 11.5 mph 19.6 mph N/A   Mostly Cloudy
9:53 AM 84.0 °F 85.8 °F 64.9 °F 53% 29.89 in 10.0 mi SW 10.4 mph 19.6 mph N/A   Mostly Cloudy
10:53 AM 88.0 °F 88.4 °F 62.1 °F 42% 29.88 in 10.0 mi SW 12.7 mph 20.7 mph N/A   Mostly Cloudy
11:53 AM 89.1 °F 88.8 °F 60.1 °F 38% 29.88 in 10.0 mi SW 11.5 mph 23.0 mph N/A   Scattered Clouds
12:53 PM 91.0 °F 90.2 °F 59.0 °F 34% 29.86 in 10.0 mi SSW 15.0 mph 23.0 mph N/A   Scattered Clouds
1:53 PM 93.0 °F 92.0 °F 57.9 °F 31% 29.83 in 10.0 mi SW 9.2 mph - N/A   Scattered Clouds
2:53 PM 91.9 °F 90.6 °F 57.0 °F 31% 29.82 in 10.0 mi SW 9.2 mph 21.9 mph N/A   Partly Cloudy
3:53 PM 93.0 °F 90.8 °F 54.0 °F 27% 29.81 in 10.0 mi SSW 17.3 mph 33.4 mph N/A   Partly Cloudy
4:53 PM 91.9 °F 90.0 °F 55.0 °F 29% 29.82 in 10.0 mi WSW 11.5 mph 20.7 mph N/A   Scattered Clouds
5:53 PM 90.0 °F 88.6 °F 57.0 °F 33% 29.81 in 10.0 mi SSW 11.5 mph - N/A   Mostly Cloudy
6:53 PM 87.1 °F 85.7 °F 55.9 °F 35% 29.81 in 10.0 mi SW 8.1 mph - N/A   Mostly Cloudy
7:53 PM 84.0 °F 83.3 °F 57.0 °F 40% 29.82 in 10.0 mi SW 3.5 mph - N/A   Mostly Cloudy
8:53 PM 82.0 °F 82.0 °F 57.9 °F 44% 29.85 in 10.0 mi SW 3.5 mph - N/A   Overcast
9:53 PM 82.0 °F 82.0 °F 57.9 °F 44% 29.88 in 10.0 mi SW 4.6 mph - N/A   Overcast
10:53 PM 81.0 °F 81.3 °F 59.0 °F 47% 29.88 in 10.0 mi SSW 5.8 mph - N/A   Overcast
11:53 PM 80.1 °F 80.9 °F 60.1 °F 50% 29.87 in 10.0 mi SSW 5.8 mph - N/A   Overcast